{"data":{"norad_id":28786,"epoch":"2026-05-25T00:53:21.028416Z","epoch_age_seconds":71529,"freshness":"FRESH","line1":"1 28786U 05028A   26145.03704894 -.00000365  00000+0  00000+0 0  9992","line2":"2 28786   0.1872  86.1403 0001985 332.1213 317.2041  1.00271723 52010","mean_motion":1.00271723,"eccentricity":0.0001985,"inclination_deg":0.1872,"raan_deg":86.1403,"arg_perigee_deg":332.1213,"mean_anomaly_deg":317.2041,"bstar":0,"rev_number":5201,"period_min":1436.0977919967,"perigee_km":35778.242639306,"apogee_km":35794.982044795,"semimajor_km":42164.74934205,"source":"CELESTRAK","updated_at":"2026-05-25T13:38:13.849830Z"}}